When you browse on this site, cookies collect data to enhance your experience and personalize the content and advertising you see.
Visit our Privacy Policy to learn more. By continuing to use the site, you agree to this use of cookies and data.
  • In Austria
  • List of Countries
  • For 7 days
  • Water Temperature
  • Weather Map
  • News
  • Weather Widgets
  • user-avatar
    Login

    Hourly Weather Stara Zagora

    Today, 15 October, Tuesday

    Time Temperature Precipitation Wind Pressure Humidity
    00:00 +15°C° 0 mm 1 mps 745 mmHg 63%
    01:00 +15°C° 0 mm 1 mps 745 mmHg 66%
    02:00 +14°C° 0 mm 1 mps 745 mmHg 68%
    03:00 +14°C° 0 mm 1 mps 744 mmHg 68%
    04:00 +13°C° 0 mm 0 mps 744 mmHg 67%
    05:00 +13°C° 0 mm 0 mps 744 mmHg 67%
    06:00 +14°C° 0 mm 0 mps 744 mmHg 63%
    07:00 +15°C° 0 mm 0 mps 744 mmHg 60%
    08:00 +16°C° 0 mm 0 mps 745 mmHg 57%
    09:00 +18°C° 0 mm 0 mps 744 mmHg 50%
    10:00 +22°C° 0 mm 1 mps 744 mmHg 44%
    11:00 +24°C° 0 mm 1 mps 744 mmHg 37%
    12:00 +25°C° 0 mm 1 mps 744 mmHg 34%
    13:00 +26°C° 0 mm 1 mps 744 mmHg 31%
    14:00 +27°C° 0 mm 2 mps 743 mmHg 28%
    15:00 +26°C° 0 mm 2 mps 743 mmHg 31%
    16:00 +25°C° 0 mm 2 mps 743 mmHg 34%
    17:00 +24°C° 0 mm 1 mps 742 mmHg 37%
    18:00 +22°C° 0 mm 1 mps 742 mmHg 42%
    19:00 +20°C° 0 mm 2 mps 743 mmHg 47%
    20:00 +18°C° 0 mm 2 mps 743 mmHg 53%
    21:00 +17°C° 0 mm 2 mps 743 mmHg 60%
    22:00 +16°C° 0 mm 2 mps 743 mmHg 67%
    23:00 +15°C° 0 mm 2 mps 743 mmHg 74%

    Tomorrow, 16 October, Wednesday

    Time Temperature Precipitation Wind Pressure Humidity
    00:00 +15°C° 0 mm 1 mps 743 mmHg 74%
    01:00 +15°C° 0 mm 1 mps 743 mmHg 74%
    02:00 +15°C° 0 mm 1 mps 743 mmHg 75%
    03:00 +14°C° 0 mm 1 mps 743 mmHg 74%
    04:00 +13°C° 0 mm 0 mps 743 mmHg 73%
    05:00 +13°C° 0 mm 0 mps 742 mmHg 72%
    06:00 +14°C° 0 mm 0 mps 743 mmHg 69%
    07:00 +15°C° 0 mm 0 mps 743 mmHg 66%
    08:00 +15°C° 0 mm 0 mps 743 mmHg 62%
    09:00 +18°C° 0 mm 0 mps 743 mmHg 55%
    10:00 +22°C° 0 mm 1 mps 743 mmHg 47%
    11:00 +24°C° 0 mm 1 mps 743 mmHg 40%
    12:00 +25°C° 0 mm 1 mps 743 mmHg 37%
    13:00 +26°C° 0 mm 1 mps 743 mmHg 35%
    14:00 +27°C° 0 mm 2 mps 742 mmHg 32%
    15:00 +26°C° 0 mm 1 mps 742 mmHg 35%
    16:00 +25°C° 0 mm 1 mps 742 mmHg 38%
    17:00 +24°C° 0 mm 1 mps 742 mmHg 42%
    18:00 +22°C° 0 mm 1 mps 742 mmHg 45%
    19:00 +21°C° 0 mm 1 mps 742 mmHg 49%
    20:00 +19°C° 0 mm 1 mps 742 mmHg 53%
    21:00 +19°C° 0 mm 1 mps 743 mmHg 57%
    22:00 +18°C° 0 mm 1 mps 743 mmHg 61%
    23:00 +16°C° 0 mm 1 mps 743 mmHg 66%

    Day after tomorrow, 17 October, Thursday

    Time Temperature Precipitation Wind Pressure Humidity
    00:00 +16°C° 0 mm 1 mps 743 mmHg 68%
    01:00 +16°C° 0 mm 1 mps 743 mmHg 69%
    02:00 +15°C° 0 mm 1 mps 743 mmHg 71%
    03:00 +15°C° 0 mm 1 mps 743 mmHg 70%
    04:00 +15°C° 0 mm 1 mps 743 mmHg 68%
    05:00 +15°C° 0 mm 1 mps 743 mmHg 67%
    06:00 +16°C° 0 mm 1 mps 743 mmHg 64%
    07:00 +16°C° 0 mm 1 mps 743 mmHg 61%
    08:00 +18°C° 0 mm 1 mps 743 mmHg 57%
    09:00 +20°C° 0 mm 1 mps 743 mmHg 50%
    10:00 +23°C° 0 mm 1 mps 744 mmHg 44%
    11:00 +25°C° 0 mm 1 mps 744 mmHg 37%
    12:00 +25°C° 0 mm 1 mps 744 mmHg 35%
    13:00 +26°C° 0 mm 1 mps 743 mmHg 33%
    14:00 +27°C° 0 mm 2 mps 743 mmHg 31%
    15:00 +26°C° 0 mm 2 mps 743 mmHg 34%
    16:00 +25°C° 0 mm 1 mps 743 mmHg 37%
    17:00 +24°C° 0 mm 1 mps 743 mmHg 39%
    18:00 +23°C° 0 mm 1 mps 743 mmHg 43%
    19:00 +21°C° 0 mm 1 mps 743 mmHg 47%
    20:00 +20°C° 0 mm 1 mps 743 mmHg 50%
    21:00 +19°C° 0 mm 1 mps 743 mmHg 53%
    22:00 +19°C° 0 mm 1 mps 743 mmHg 57%
    23:00 +18°C° 0 mm 1 mps 744 mmHg 60%

    18 October, Friday

    Time Temperature Precipitation Wind Pressure Humidity
    00:00 +18°C° 0 mm 1 mps 744 mmHg 61%
    01:00 +16°C° 0 mm 1 mps 743 mmHg 62%
    02:00 +16°C° 0 mm 1 mps 743 mmHg 63%
    03:00 +16°C° 0 mm 1 mps 743 mmHg 64%
    04:00 +15°C° 0 mm 0 mps 744 mmHg 65%
    05:00 +14°C° 0 mm 0 mps 744 mmHg 66%
    06:00 +15°C° 0 mm 0 mps 744 mmHg 63%
    07:00 +16°C° 0 mm 0 mps 744 mmHg 60%
    08:00 +17°C° 0 mm 0 mps 744 mmHg 57%
    09:00 +19°C° 0 mm 0 mps 744 mmHg 51%
    10:00 +21°C° 0 mm 0 mps 744 mmHg 44%
    11:00 +23°C° 0 mm 0 mps 744 mmHg 38%
    12:00 +26°C° 0 mm 1 mps 744 mmHg 35%
    13:00 +26°C° 0 mm 1 mps 744 mmHg 33%
    14:00 +27°C° 0 mm 2 mps 743 mmHg 31%
    15:00 +26°C° 0 mm 2 mps 743 mmHg 33%
    16:00 +25°C° 0 mm 2 mps 743 mmHg 35%
    17:00 +24°C° 0 mm 2 mps 743 mmHg 37%
    18:00 +23°C° 0 mm 1 mps 743 mmHg 40%
    19:00 +21°C° 0 mm 1 mps 743 mmHg 43%
    20:00 +20°C° 0 mm 1 mps 744 mmHg 46%
    21:00 +19°C° 0 mm 1 mps 744 mmHg 48%
    22:00 +19°C° 0 mm 1 mps 744 mmHg 51%
    23:00 +18°C° 0 mm 1 mps 744 mmHg 53%

    19 October, Saturday

    Time Temperature Precipitation Wind Pressure Humidity
    00:00 +18°C° 0 mm 1 mps 744 mmHg 54%
    01:00 +16°C° 0 mm 1 mps 744 mmHg 55%
    02:00 +16°C° 0 mm 1 mps 744 mmHg 57%
    03:00 +16°C° 0 mm 1 mps 744 mmHg 58%
    04:00 +15°C° 0 mm 1 mps 744 mmHg 59%
    05:00 +14°C° 0 mm 0 mps 744 mmHg 60%
    06:00 +15°C° 0 mm 0 mps 744 mmHg 58%
    07:00 +16°C° 0 mm 0 mps 744 mmHg 56%
    08:00 +16°C° 0 mm 0 mps 745 mmHg 54%
    09:00 +18°C° 0 mm 0 mps 745 mmHg 48%
    10:00 +22°C° 0 mm 1 mps 745 mmHg 42%
    11:00 +24°C° 0 mm 1 mps 745 mmHg 37%
    12:00 +25°C° 0 mm 1 mps 745 mmHg 35%
    13:00 +26°C° 0 mm 1 mps 744 mmHg 33%
    14:00 +26°C° 0 mm 2 mps 744 mmHg 31%
    15:00 +25°C° 0 mm 2 mps 744 mmHg 33%
    16:00 +24°C° 0 mm 2 mps 744 mmHg 35%
    17:00 +23°C° 0 mm 2 mps 744 mmHg 37%
    18:00 +21°C° 0 mm 2 mps 744 mmHg 41%
    19:00 +20°C° 0 mm 2 mps 744 mmHg 45%
    20:00 +18°C° 0 mm 2 mps 744 mmHg 48%
    21:00 +17°C° 0 mm 2 mps 744 mmHg 53%
    22:00 +18°C° 0 mm 1 mps 744 mmHg 57%
    23:00 +16°C° 0 mm 1 mps 745 mmHg 62%

    20 October, Sunday

    Time Temperature Precipitation Wind Pressure Humidity
    00:00 +16°C° 0 mm 1 mps 744 mmHg 64%
    01:00 +15°C° 0 mm 1 mps 744 mmHg 66%
    02:00 +15°C° 0 mm 1 mps 744 mmHg 68%
    03:00 +15°C° 0 mm 1 mps 744 mmHg 70%
    04:00 +14°C° 0 mm 1 mps 744 mmHg 72%
    05:00 +13°C° 0 mm 0 mps 744 mmHg 73%
    06:00 +14°C° 0 mm 0 mps 744 mmHg 71%
    07:00 +14°C° 0 mm 0 mps 745 mmHg 68%
    08:00 +15°C° 0 mm 0 mps 745 mmHg 66%
    09:00 +19°C° 0 mm 1 mps 745 mmHg 59%
    10:00 +21°C° 0 mm 1 mps 745 mmHg 52%
    11:00 +21°C° 0 mm 2 mps 745 mmHg 46%
    12:00 +23°C° 0 mm 2 mps 745 mmHg 42%
    13:00 +24°C° 0 mm 2 mps 745 mmHg 39%
    14:00 +25°C° 0 mm 2 mps 744 mmHg 35%
    15:00 +24°C° 0 mm 2 mps 744 mmHg 38%
    16:00 +23°C° 0 mm 2 mps 744 mmHg 40%
    17:00 +21°C° 0 mm 2 mps 744 mmHg 43%
    18:00 +20°C° 0 mm 2 mps 744 mmHg 48%
    19:00 +19°C° 0 mm 2 mps 744 mmHg 54%
    20:00 +17°C° 0 mm 2 mps 745 mmHg 59%
    21:00 +16°C° 0 mm 2 mps 745 mmHg 63%
    22:00 +16°C° 0 mm 2 mps 745 mmHg 68%
    23:00 +15°C° 0 mm 2 mps 745 mmHg 72%
    Show more